FFF LFML-LFML

Flight info

Callsign FFF
Flight time N/A
Altitude 3000
Route TDP
Aircraft DA42/L-SBDGRY/S

Departure

Time 2026-05-04 20:06
Airport Marseille Provence Airport (LFML)

Arrival

Time N/A
Airport Marseille Provence Airport (LFML)
Time Latitude Longitude Altitude Speed Heading
2026-05-04 19:43 43.43895 5.22055 32 ft 0 kts 314°
2026-05-04 19:46 43.43895 5.22056 42 ft 0 kts 314°
2026-05-04 19:48 43.43894 5.22056 42 ft 0 kts 314°
2026-05-04 19:49 43.43894 5.22057 42 ft 0 kts 314°
2026-05-04 19:54 43.43894 5.22058 42 ft 0 kts 313°
2026-05-04 19:55 43.43897 5.22053 42 ft 4 kts 313°
2026-05-04 19:55 43.43935 5.21997 41 ft 4 kts 319°
2026-05-04 19:55 43.43943 5.21980 41 ft 1 kts 275°
2026-05-04 19:55 43.43942 5.21965 40 ft 0 kts 259°
2026-05-04 19:56 43.43940 5.21958 40 ft 3 kts 244°
2026-05-04 19:56 43.43921 5.21912 40 ft 6 kts 240°
2026-05-04 19:56 43.43904 5.21862 40 ft 5 kts 252°
2026-05-04 19:56 43.43900 5.21838 40 ft 5 kts 257°
2026-05-04 19:57 43.43899 5.21828 40 ft 0 kts 267°
2026-05-04 19:57 43.43899 5.21822 40 ft 0 kts 281°
2026-05-04 19:57 43.43902 5.21812 40 ft 3 kts 298°
2026-05-04 19:57 43.43944 5.21755 38 ft 12 kts 319°
2026-05-04 19:58 43.43982 5.21682 37 ft 7 kts 281°
2026-05-04 19:58 43.43973 5.21626 37 ft 6 kts 238°
2026-05-04 19:58 43.43945 5.21590 37 ft 7 kts 220°
2026-05-04 19:58 43.43919 5.21546 37 ft 5 kts 243°
2026-05-04 19:59 43.43913 5.21518 37 ft 2 kts 266°
2026-05-04 19:59 43.43913 5.21501 37 ft 3 kts 277°
2026-05-04 19:59 43.43928 5.21470 37 ft 9 kts 311°
2026-05-04 19:59 43.43997 5.21370 35 ft 20 kts 317°
2026-05-04 20:00 43.44122 5.21209 31 ft 29 kts 317°
2026-05-04 20:00 43.44259 5.20998 27 ft 28 kts 305°
2026-05-04 20:00 43.44351 5.20805 24 ft 25 kts 313°
2026-05-04 20:00 43.44469 5.20643 22 ft 25 kts 316°
2026-05-04 20:01 43.44582 5.20491 19 ft 18 kts 316°
2026-05-04 20:01 43.44663 5.20361 17 ft 15 kts 308°
2026-05-04 20:01 43.44676 5.20296 16 ft 0 kts 250°
2026-05-04 20:02 43.44662 5.20274 16 ft 12 kts 221°
2026-05-04 20:03 43.44566 5.20240 18 ft 20 kts 162°
2026-05-04 20:03 43.44534 5.20276 19 ft 0 kts 128°
2026-05-04 20:04 43.44473 5.20370 21 ft 38 kts 127°
2026-05-04 20:05 43.44177 5.20755 48 ft 74 kts 130°
2026-05-04 20:05 43.43826 5.21286 138 ft 90 kts 127°
2026-05-04 20:05 43.43372 5.21853 347 ft 95 kts 127°
2026-05-04 20:05 43.42930 5.22580 573 ft 104 kts 128°
2026-05-04 20:06 43.42204 5.22953 623 ft 137 kts 192°
2026-05-04 20:06 43.42238 5.21951 958 ft 127 kts 320°
2026-05-04 20:06 43.42833 5.20940 962 ft 148 kts 298°
2026-05-04 20:06 43.43079 5.19525 885 ft 156 kts 272°
2026-05-04 20:07 43.42706 5.18165 887 ft 147 kts 219°
2026-05-04 20:07 43.41837 5.17878 864 ft 129 kts 142°
2026-05-04 20:07 43.41791 5.18887 1028 ft 124 kts 49°
2026-05-04 20:07 43.42648 5.18475 743 ft 170 kts 295°
2026-05-04 20:08 43.42380 5.17129 1044 ft 134 kts 209°